Regional Weather Roundup
Issued by NWS

Home | Current Version | Previous Version | Text Only | Print | Product List | Glossary On
Versions: 1 2 3 4 5 6 7 8 9 10 11 12 13 14 15 16 17 18 19 20 21 22 23 24 25 26 27 28 29 30 31 32 33 34 35 36 37 38 39 40 41 42 43 44 45 46 47 48 49 50
000
ASUS43 KMPX 302310
RWRMN
WEATHER ROUNDUP FOR MINNESOTA
NATIONAL WEATHER SERVICE TWIN CITIES/CHANHASSEN MN
600 PM CDT MON MAY 30 2016


NOTE: "FAIR" INDICATES FEW OR NO CLOUDS BELOW 12,000 FEET WITH NO
SIGNIFICANT WEATHER AND/OR OBSTRUCTIONS TO VISIBILITY. N/A MEANS
CURRENT SKY AND/OR WEATHER CONDITIONS ARE NOT AVAILABLE.

MNZ060>063-068>070-310000-
   Twin Cities Metro

CITY           SKY/WX    TMP DP  RH WIND       PRES   REMARKS
TWIN CITIES    PTSUNNY   83  48  29 S9        29.90F
ST PAUL        SUNNY     81  52  36 SE9       29.90F
CRYSTAL        MOSUNNY   82  49  31 VRB7      29.88F
BLAINE         PTSUNNY   84  52  32 SE8       29.90F
EDEN PRAIRIE   CLOUDY    83  48  29 SE12      29.89F
SOUTH ST PAUL  SUNNY     82  47  29 SE8       29.90F
LAKE ELMO      FAIR      79  54  41 SE7       29.92F
$$
MNZ001>005-007-008-013>017-022>024-027-028-310000-
   Northwest Minnesota

CITY           SKY/WX    TMP DP  RH WIND       PRES   REMARKS
BEMIDJI        MOSUNNY   75  47  37 SE13      29.88F
HALLOCK        CLOUDY    77  46  33 SE3       29.83F
ROSEAU         CLOUDY    73  61  64 E13       29.88F
WARROAD        SUNNY     70  59  68 NE12      29.91S
THIEF RVR FALL CLOUDY    73  50  43 E6        29.87S
CROOKSTON      TSTM      68  55  64 SW3       29.86R
FOSSTON        PTSUNNY   77  55  47 E5        29.85F
DETROIT LAKES  MOSUNNY   79  43  27 S15       29.84F
MOORHEAD       MOSUNNY   82  46  28 SE16      29.78F
PARK RAPIDS    PTSUNNY   76  51  41 E15       29.87F
MAHNOMEN       FAIR      78  51  38 E8        29.83F
$$
MNZ006-009>011-018-025>026-310000-
   North Central Minnesota

CITY           SKY/WX    TMP DP  RH WIND       PRES   REMARKS
BAUDETTE       PTSUNNY   77  48  35 E6        29.89F
FLAG ISLAND    CLOUDY    70  52  52 NE12      29.91F
INTL FALLS     SUNNY     75  46  35 NE9       29.93F
WASKISH        CLOUDY    75  46  35 CALM      29.89F
BIG FORK       SUNNY     77  43  29 CALM      29.92F
LONGVILLE      CLOUDY    66  63  88 CALM      29.91F
GRAND RAPIDS   CLOUDY    74  48  39 SE7       29.93F
CRANE LAKE     CLOUDY    72  39  30 NE3       29.96F
ORR            CLOUDY    73  46  38 CALM      29.92F
COOK           CLOUDY    75  48  38 E8        29.95S
WALKER         CLOUDY    70  54  56 SE3       29.90F
$$
MNZ012-019>021-037-310000-
   Northeast Minnesota

CITY           SKY/WX    TMP DP  RH WIND       PRES   REMARKS
DULUTH         PTSUNNY   73  49  42 E5        29.93S
ELY            MOSUNNY   73  39  29 NE6       29.96S
HIBBING        MOSUNNY   76  44  32 N7        29.92F
EVELETH        SUNNY     77  41  27 E3        29.95F
DULUTH HARBOR  CLOUDY    61  48  63 N6        29.92R
TWO HARBORS      N/A     79  52  38 SE7       29.91F
SILVER BAY     MOSUNNY   73  46  38 SE5       29.92S
GRAND MARAIS     N/A     56  41  57 VRB5      29.93R
G MARAIS ARPRT SUNNY     70  41  35 NW5       29.99R
$$
MNZ029>031-032-039>041-046>048-054>057-064-310000-
   West Central Minnesota

CITY           SKY/WX    TMP DP  RH WIND       PRES   REMARKS
FERGUS FALLS   PTSUNNY   81  52  36 SE16G22   29.77F
WHEATON        MOSUNNY   86  54  32 S16G22    29.79F
MORRIS         MOSUNNY   81  52  36 S16       29.80F
ALEXANDRIA     PTSUNNY   76  53  44 SE12      29.87F
ELBOW LAKE     FAIR      80  55  43 SE18      29.81F
WADENA         MOSUNNY   81  50  34 S14       29.86F
GLENWOOD       MOSUNNY   79  54  41 E13       29.86F
APPLETON       PTSUNNY   86  50  28 SE15      29.79F
BENSON         MOSUNNY   82  48  30 S14G23    29.83F
ORTONVILLE     MOSUNNY   84  52  32 S9G20     29.79F
MADISON        CLOUDY    84  48  28 S15       29.79F
WILLMAR        FAIR      82  54  36 S9G22     29.85F
$$
MNZ033>034-036-042>043-049>051-058-059-310000-
   Central Minnesota

CITY           SKY/WX    TMP DP  RH WIND       PRES   REMARKS
ST CLOUD       MOSUNNY   81  52  36 SE13      29.89F
SAUK CENTRE    MOCLDY    76  52  42 SE10      29.87F
PAYNESVILLE    PTSUNNY   80  48  32 SE8       29.88F
AITKIN         CLOUDY    75  52  43 NE7       29.90F
PINE RIVER     MOSUNNY   75  55  50 NE10      29.93F
BRAINERD       CLOUDY    78  51  38 S7        29.89F
STAPLES        MOSUNNY   77  46  33 S12G21    29.87F
LONG PRAIRIE   PTSUNNY   77  52  41 E10G16    29.88F
LITTLE FALLS   PTSUNNY   79  46  31 SE10      29.89F
LITCHFIELD     PTSUNNY   81  52  36 SE8       29.88F
BUFFALO        SUNNY     81  50  33 SE7       29.90F
MAPLE LAKE     SUNNY     81  53  37 S7        29.90F
HUTCHINSON     CLOUDY    80  56  43 SE5       29.88F
$$
MNZ037-044-045-052-053-310000-
   East Central Minnesota

CITY           SKY/WX    TMP DP  RH WIND       PRES   REMARKS
PRINCETON      SUNNY     81  52  36 S6        29.91F
MORA           SUNNY     77  50  38 SW5       29.92F
CAMBRIDGE        N/A     82  57  42 S5        29.90F
RUSH CITY      SUNNY     80  52  37 SW7       29.91F
MOOSE LAKE     CLOUDY    79  50  36 S6        29.90S
HINCKLEY       FAIR      79  54  41 SW5       29.92F
CLOQUET        CLOUDY    75  43  31 CALM      29.93S
MCGREGOR       PTSUNNY   72  54  53 NE7       29.92F
$$
MNZ071>073-080-081-089-090-097-098-310000-
   Southwest Minnesota

CITY           SKY/WX    TMP DP  RH WIND       PRES   REMARKS
MONTEVIDEO     PTSUNNY   82  54  36 S9        29.83F
GRANITE FALLS  MOSUNNY   85  54  34 SE17G24   29.83F
CANBY          MOSUNNY   86  57  37 S14G21    29.81F
MARSHALL       SUNNY     84  56  38 S10       29.81F
REDWOOD FALLS  MOSUNNY   84  55  36 SE16      29.83F
OLIVIA         PTSUNNY   79  54  41 SE15      29.84F
PIPESTONE      MOSUNNY   81  54  39 S15       29.83F
WINDOM         PTSUNNY   82  54  36 CALM      29.85F
WORTHINGTON    MOSUNNY   82  56  40 S12       29.85F
JACKSON        CLOUDY    84  46  26 SW7       29.86F
TRACY          SUNNY     85  55  35 S12       29.83F
SLAYTON        MOSUNNY   83  49  31 S15       29.85F
$$
MNZ065>067-074>077-082>085-091>093-310000-
   South Central Minnesota

CITY           SKY/WX    TMP DP  RH WIND       PRES   REMARKS
MANKATO        CLOUDY    82  52  34 S14       29.88F
NEW ULM        MOSUNNY   82  55  39 S10       29.86F
ST JAMES       MOSUNNY   75  52  43 SE10      29.86F
FAIRMONT       CLOUDY    81  57  44 SE13      29.86F
GLENCOE        PTSUNNY   83  55  38 SE8       29.87F
FARIBAULT      MOSUNNY   82  52  34 SE9       29.91F
OWATONNA       PTSUNNY   81  48  32 S10G16    29.90F
WASECA         CLOUDY    79  50  36 SE9       29.91F
ALBERT LEA     CLOUDY    82  55  39 SE10      29.90F
$$
MNZ078>079-086>088-094>096-310000-
   Southeast Minnesota

CITY           SKY/WX    TMP DP  RH WIND       PRES   REMARKS
ROCHESTER      CLOUDY    78  52  40 SE12      29.93F
RED WING       SUNNY     82  50  32 SE8       29.90F
STANTON        SUNNY     83  47  28 SE8       29.89F
DODGE CENTER   MOSUNNY   81  46  30 SE13      29.92F
WINONA         SUNNY     81  46  30 CALM      29.94F
AUSTIN         SUNNY     79  55  44 S5        29.91F
PRESTON        SUNNY     79  49  35 SE8       29.95F
$$
ABBREVIATIONS USED IN REMARKS
   TC - TEMPERATURES IN CELSIUS
  WCI - WIND CHILL INDEX
   HX - HEAT INDEX
  VSB - VISIBILITY
$$



USA.gov is the U.S. government's official web portal to all federal, state and local government web resources and services.